OPS 4682 DEB, 1399

Orbit data source: Space-Track

OPS 4682 DEB, 1399 is space debris in LEO originally from a launch on Sat, 03 Apr 1965 UTC launched from the Air Force Western Test Range (AFWTR). Debris objects in space refer to the collection of defunct objects orbiting the Earth. Examples of debris include non-operational satellites, rocket bodies, and fragments generated from explosions, collisions, or faulty payload assembly.

Loading next visibility...
Identifier
1399, 1965-027E
Orbit
LEO
Country
Flag of USUS
Related business
Manufacturer
Unknown
Mission
Spacecraft
Bus & Motor
Unknown
Mass
Unknown
Launch date (UTC)
1965-04-03 (61 years ago)
Launch vehicle
Unknown
Launch site
Air Force Western Test Range (AFWTR)
Object type
Payload
Rocket body
Debris
Shape & HBR
Unknown shape, 0.1 m
Radar Cross Section
Medium (>0.1 m² and <1 m²)

Expand to show TLE details & history
Last TLE update: 9 hours ago

TLE from 9 hours ago
0 OPS 4682 DEB
1 01399U 65027E   26208.44369325 -.00000485  00000-0 -16393-2 0  9999
2 01399  90.2699  26.0551 0009092 164.3747 195.7658 12.99950926638336
Epoch: 2026-07-27T10:38Z
TLE epoch observation values (Epoch: 2026-07-27T10:38:55.096Z)
Latitude
0.00002°
Longitude
-78.80166°
Altitude
1,271.85 km
Speed
7.217 km/s
True Right ascension
01h 44m 13s
True Declination
0° 00' 00"
Sunlit
Object was in daylight at epoch
Visualization orbit readout
Latitude
Unknown
Longitude
Unknown
Altitude
Unknown
Speed
Unknown
Apparent Right ascension
Unknown
Apparent Declination
Unknown
Sunlit
N/A
Visualization observer readout
Local Sidereal Time
09:16:01
Azimuth
Unknown
Elevation
Unknown
Doppler factor
Unknown
Orbital elements
Apogee altitude
1,266.35 km
Perigee altitude
1,252.462 km
Semi-major axis
7,637.543 km
Eccentricity
0.00091
Inclination
90.2699°
RAAN
26.0551°
Arg. of periapsis
164.3747°
True anomaly
195.73752°
Mean anomaly
195.7658°
Eccentric anomaly
195.75166°
Mean motion
3.25172 °/min
Orbital period
110.71 mins
BSTAR
-0.0016393
Loading maneuver chart data...
Computing Atmospheric mass density...
Loading historical data...
Loading historical data...
Loading historical data...
Loading historical data...
Loading historical data...
Loading historical data...
Loading historical data...

Documentation

Showing up to 5 results
|